75.0°F
Current conditions from King Hill
Updated every 5 minutes
 
  Friday July 25, 2014

Station Historical Data
Daily Summary for April 28, 2012 Units:  English    Metric   Both
« Previous Day
Next Day »
Daily Weekly Monthly Yearly Custom
  High: Low: Average:
Temperature: 45.9 °F 27.0 °F 35.1 °F
Dew Point: 22.7 °F 15.3 °F 19 °F
Humidity: 75% 33% 54%
Wind Speed: 12.0mph 1.0mph 5mph
Wind Gust: 22.0mph - -
Wind- - NW
Pressure: 30.16 in 30.06 in -
Precipitation: 0.00 in    
Historical Graphs
 
 
Tabular Data for April 28, 2012
Time Temperature Dew Point Pressure Wind Wind Speed Wind Gust Humidity Daily Rainfall
00:04 28.7 °F 20.5 °F 30.07 in NW 8.0 mph 18.0 mph 71% 0.00 in
00:09 28.5 °F 21.0 °F 30.07 in NW 10.0 mph 20.0 mph 73% 0.00 in
00:14 28.2 °F 21.0 °F 30.07 in NW 6.0 mph 20.0 mph 74% 0.00 in
00:19 28.1 °F 21.2 °F 30.07 in NW 6.0 mph 13.0 mph 75% 0.00 in
00:24 28.2 °F 21.0 °F 30.07 in NW 8.0 mph 17.0 mph 74% 0.00 in
00:29 28.3 °F 21.1 °F 30.07 in NW 7.0 mph 17.0 mph 74% 0.00 in
00:39 28.3 °F 20.8 °F 30.07 in NNW 7.0 mph 21.0 mph 73% 0.00 in
00:44 28.3 °F 20.8 °F 30.07 in NNW 6.0 mph 19.0 mph 73% 0.00 in
00:49 28.2 °F 20.3 °F 30.07 in NW 11.0 mph 20.0 mph 72% 0.00 in
00:59 28.3 °F 20.4 °F 30.08 in NW 7.0 mph 18.0 mph 72% 0.00 in
01:04 28.3 °F 20.4 °F 30.07 in NW 8.0 mph 16.0 mph 72% 0.00 in
01:09 28.3 °F 20.1 °F 30.07 in WNW 12.0 mph 21.0 mph 71% 0.00 in
01:14 28.2 °F 20.0 °F 30.07 in NW 5.0 mph 21.0 mph 71% 0.00 in
01:19 28.2 °F 20.0 °F 30.07 in NW 5.0 mph 15.0 mph 71% 0.00 in
01:24 28.2 °F 20.0 °F 30.07 in NW 6.0 mph 14.0 mph 71% 0.00 in
01:29 28.2 °F 19.7 °F 30.07 in NW 11.0 mph 19.0 mph 70% 0.00 in
01:34 28.3 °F 19.8 °F 30.07 in NW 9.0 mph 19.0 mph 70% 0.00 in
01:39 28.3 °F 19.8 °F 30.07 in NW 9.0 mph 20.0 mph 70% 0.00 in
01:44 28.3 °F 19.8 °F 30.07 in NW 8.0 mph 20.0 mph 70% 0.00 in
01:49 28.3 °F 19.8 °F 30.07 in WNW 5.0 mph 14.0 mph 70% 0.00 in
01:59 28.3 °F 19.8 °F 30.07 in WNW 5.0 mph 15.0 mph 70% 0.00 in
02:04 28.3 °F 19.8 °F 30.07 in NW 5.0 mph 15.0 mph 70% 0.00 in
02:09 28.3 °F 19.4 °F 30.06 in NW 10.0 mph 18.0 mph 69% 0.00 in
02:14 28.4 °F 19.5 °F 30.06 in WNW 2.0 mph 18.0 mph 69% 0.00 in
02:19 28.5 °F 19.6 °F 30.06 in NW 6.0 mph 14.0 mph 69% 0.00 in
02:24 28.5 °F 19.6 °F 30.06 in WNW 5.0 mph 14.0 mph 69% 0.00 in
02:29 28.4 °F 19.5 °F 30.06 in NW 8.0 mph 12.0 mph 69% 0.00 in
02:34 28.5 °F 19.6 °F 30.06 in NW 6.0 mph 16.0 mph 69% 0.00 in
02:39 28.5 °F 20.0 °F 30.06 in NW 2.0 mph 16.0 mph 70% 0.00 in
02:44 28.4 °F 19.9 °F 30.06 in NNW 3.0 mph 12.0 mph 70% 0.00 in
02:49 28.4 °F 19.9 °F 30.06 in NW 3.0 mph 12.0 mph 70% 0.00 in
02:59 28.3 °F 20.1 °F 30.06 in NW 5.0 mph 13.0 mph 71% 0.00 in
03:04 28.3 °F 20.1 °F 30.06 in NW 5.0 mph 13.0 mph 71% 0.00 in
03:09 28.2 °F 20.0 °F 30.07 in WNW 4.0 mph 10.0 mph 71% 0.00 in
03:14 28.2 °F 20.0 °F 30.07 in NNW 3.0 mph 14.0 mph 71% 0.00 in
03:19 28.2 °F 20.3 °F 30.07 in NNW 7.0 mph 15.0 mph 72% 0.00 in
03:24 28.2 °F 20.3 °F 30.07 in NW 6.0 mph 15.0 mph 72% 0.00 in
03:29 28.1 °F 19.9 °F 30.07 in NW 7.0 mph 15.0 mph 71% 0.00 in
03:34 28.1 °F 19.9 °F 30.07 in WNW 6.0 mph 15.0 mph 71% 0.00 in
03:39 28.1 °F 19.9 °F 30.07 in NW 4.0 mph 13.0 mph 71% 0.00 in
03:44 28.1 °F 19.9 °F 30.07 in NW 3.0 mph 13.0 mph 71% 0.00 in
03:49 28.1 °F 19.6 °F 30.07 in NW 5.0 mph 13.0 mph 70% 0.00 in
03:54 28.1 °F 18.9 °F 30.07 in NW 10.0 mph 14.0 mph 68% 0.00 in
03:59 28.1 °F 18.9 °F 30.07 in NW 5.0 mph 14.0 mph 68% 0.00 in
04:04 28.0 °F 18.8 °F 30.07 in NNW 2.0 mph 13.0 mph 68% 0.00 in
04:09 28.0 °F 18.5 °F 30.07 in NW 9.0 mph 17.0 mph 67% 0.00 in
04:14 28.1 °F 18.6 °F 30.08 in NNW 6.0 mph 17.0 mph 67% 0.00 in
04:19 28.1 °F 18.9 °F 30.08 in NNW 10.0 mph 15.0 mph 68% 0.00 in
04:24 28.1 °F 18.9 °F 30.08 in NW 6.0 mph 17.0 mph 68% 0.00 in
04:34 28.0 °F 19.1 °F 30.08 in NW 4.0 mph 16.0 mph 69% 0.00 in
04:44 27.9 °F 19.1 °F 30.09 in NW 6.0 mph 13.0 mph 69% 0.00 in
04:49 27.9 °F 19.4 °F 30.09 in NW 7.0 mph 13.0 mph 70% 0.00 in
04:54 27.8 °F 19.3 °F 30.09 in NW 4.0 mph 13.0 mph 70% 0.00 in
04:59 27.8 °F 19.3 °F 30.09 in NW 7.0 mph 15.0 mph 70% 0.00 in
05:04 27.7 °F 19.2 °F 30.09 in NW 6.0 mph 16.0 mph 70% 0.00 in
05:09 27.7 °F 19.5 °F 30.09 in NW 4.0 mph 16.0 mph 71% 0.00 in
05:14 27.6 °F 19.1 °F 30.09 in NW 4.0 mph 10.0 mph 70% 0.00 in
05:19 27.6 °F 19.1 °F 30.10 in NW 9.0 mph 15.0 mph 70% 0.00 in
05:24 27.6 °F 19.1 °F 30.10 in NW 7.0 mph 16.0 mph 70% 0.00 in
05:29 27.5 °F 19.0 °F 30.10 in WNW 10.0 mph 16.0 mph 70% 0.00 in
05:34 27.4 °F 18.9 °F 30.11 in NW 7.0 mph 16.0 mph 70% 0.00 in
05:39 27.3 °F 19.1 °F 30.11 in NW 8.0 mph 16.0 mph 71% 0.00 in
05:44 27.3 °F 19.1 °F 30.11 in NW 7.0 mph 16.0 mph 71% 0.00 in
05:49 27.2 °F 19.0 °F 30.11 in NNW 5.0 mph 16.0 mph 71% 0.00 in
05:54 27.1 °F 19.3 °F 30.11 in NW 7.0 mph 19.0 mph 72% 0.00 in
05:59 27.0 °F 19.2 °F 30.11 in NW 5.0 mph 19.0 mph 72% 0.00 in
06:04 27.0 °F 19.2 °F 30.12 in NNW 5.0 mph 14.0 mph 72% 0.00 in
06:09 27.1 °F 19.6 °F 30.11 in NNW 2.0 mph 14.0 mph 73% 0.00 in
06:14 27.1 °F 19.3 °F 30.11 in NW 5.0 mph 11.0 mph 72% 0.00 in
06:19 27.1 °F 19.3 °F 30.12 in Calm   11.0 mph 72% 0.00 in
06:24 27.2 °F 19.0 °F 30.11 in NW 2.0 mph 10.0 mph 71% 0.00 in
06:34 27.4 °F 19.2 °F 30.12 in NW 2.0 mph 11.0 mph 71% 0.00 in
06:39 27.4 °F 19.6 °F 30.13 in NNW 6.0 mph 11.0 mph 72% 0.00 in
06:44 27.3 °F 19.1 °F 30.13 in NW 3.0 mph 11.0 mph 71% 0.00 in
06:49 27.3 °F 19.1 °F 30.13 in NW 4.0 mph 11.0 mph 71% 0.00 in
06:59 27.3 °F 19.1 °F 30.13 in NW 6.0 mph 13.0 mph 71% 0.00 in
07:04 27.3 °F 18.8 °F 30.13 in NW 1.0 mph 13.0 mph 70% 0.00 in
07:09 27.4 °F 18.9 °F 30.13 in NNW 4.0 mph 12.0 mph 70% 0.00 in
07:14 27.5 °F 18.7 °F 30.14 in NW 3.0 mph 10.0 mph 69% 0.00 in
07:19 27.6 °F 18.8 °F 30.14 in NW 5.0 mph 13.0 mph 69% 0.00 in
07:24 27.7 °F 18.9 °F 30.13 in NW 6.0 mph 13.0 mph 69% 0.00 in
07:29 27.8 °F 19.0 °F 30.14 in WNW 3.0 mph 12.0 mph 69% 0.00 in
07:34 27.8 °F 19.3 °F 30.14 in NNW 2.0 mph 9.0 mph 70% 0.00 in
07:39 27.8 °F 19.0 °F 30.13 in NNW 7.0 mph 13.0 mph 69% 0.00 in
07:44 27.8 °F 19.3 °F 30.14 in NW 5.0 mph 13.0 mph 70% 0.00 in
07:49 27.8 °F 19.0 °F 30.14 in NW 5.0 mph 12.0 mph 69% 0.00 in
07:54 27.9 °F 19.4 °F 30.14 in NW 1.0 mph 12.0 mph 70% 0.00 in
07:59 28.0 °F 19.1 °F 30.14 in NW 7.0 mph 11.0 mph 69% 0.00 in
08:04 28.0 °F 19.1 °F 30.14 in NNW 3.0 mph 11.0 mph 69% 0.00 in
08:09 28.1 °F 19.2 °F 30.14 in NNW 4.0 mph 14.0 mph 69% 0.00 in
08:14 28.2 °F 19.7 °F 30.14 in NNW 2.0 mph 14.0 mph 70% 0.00 in
08:19 28.4 °F 20.2 °F 30.14 in NNW 1.0 mph 10.0 mph 71% 0.00 in
08:24 28.6 °F 19.7 °F 30.14 in NW 5.0 mph 9.0 mph 69% 0.00 in
08:29 28.7 °F 19.5 °F 30.15 in NW 5.0 mph 9.0 mph 68% 0.00 in
08:34 28.9 °F 19.7 °F 30.15 in NNW 1.0 mph 10.0 mph 68% 0.00 in
08:39 29.2 °F 19.6 °F 30.14 in NW 3.0 mph 10.0 mph 67% 0.00 in
08:44 29.3 °F 19.4 °F 30.15 in NW 8.0 mph 16.0 mph 66% 0.00 in
08:49 29.3 °F 19.7 °F 30.15 in NW 1.0 mph 16.0 mph 67% 0.00 in
08:54 29.6 °F 19.6 °F 30.15 in NW 7.0 mph 18.0 mph 66% 0.00 in
08:59 29.6 °F 20.0 °F 30.15 in NNW 2.0 mph 18.0 mph 67% 0.00 in
09:04 30.0 °F 20.0 °F 30.15 in NNW 2.0 mph 11.0 mph 66% 0.00 in
09:09 30.5 °F 20.1 °F 30.15 in NNW 5.0 mph 12.0 mph 65% 0.00 in
09:14 30.9 °F 20.5 °F 30.15 in NW 5.0 mph 12.0 mph 65% 0.00 in
09:19 31.0 °F 20.6 °F 30.15 in WNW 5.0 mph 17.0 mph 65% 0.00 in
09:24 31.0 °F 20.3 °F 30.15 in WNW 8.0 mph 17.0 mph 64% 0.00 in
09:29 31.6 °F 20.1 °F 30.16 in NW 8.0 mph 17.0 mph 62% 0.00 in
09:34 31.7 °F 20.2 °F 30.16 in NW 7.0 mph 17.0 mph 62% 0.00 in
09:39 32.0 °F 20.8 °F 30.16 in NW 8.0 mph 19.0 mph 63% 0.00 in
09:44 31.8 °F 20.3 °F 30.15 in WNW 2.0 mph 19.0 mph 62% 0.00 in
09:49 32.5 °F 22.0 °F 30.15 in NW 7.0 mph 15.0 mph 65% 0.00 in
09:59 33.5 °F 21.9 °F 30.16 in NW 6.0 mph 20.0 mph 62% 0.00 in
10:04 33.4 °F 20.2 °F 30.15 in NNW 6.0 mph 20.0 mph 58% 0.00 in
10:09 33.3 °F 20.5 °F 30.15 in WNW 9.0 mph 17.0 mph 59% 0.00 in
10:14 33.2 °F 20.0 °F 30.16 in NW 9.0 mph 17.0 mph 58% 0.00 in
10:19 33.3 °F 20.1 °F 30.15 in NW 7.0 mph 16.0 mph 58% 0.00 in
10:24 33.5 °F 20.3 °F 30.15 in WNW 8.0 mph 15.0 mph 58% 0.00 in
10:34 34.2 °F 21.4 °F 30.15 in WNW 6.0 mph 17.0 mph 59% 0.00 in
10:39 34.4 °F 21.6 °F 30.15 in NW 8.0 mph 17.0 mph 59% 0.00 in
10:44 34.6 °F 20.5 °F 30.15 in WNW 9.0 mph 15.0 mph 56% 0.00 in
10:49 34.8 °F 21.5 °F 30.15 in NW 5.0 mph 15.0 mph 58% 0.00 in
10:54 35.3 °F 21.2 °F 30.15 in NNW 7.0 mph 14.0 mph 56% 0.00 in
10:59 35.5 °F 20.5 °F 30.15 in NW 6.0 mph 14.0 mph 54% 0.00 in
11:04 35.9 °F 21.7 °F 30.15 in NW 8.0 mph 14.0 mph 56% 0.00 in
11:09 36.0 °F 20.1 °F 30.15 in NW 7.0 mph 14.0 mph 52% 0.00 in
11:14 36.1 °F 20.2 °F 30.15 in WNW 6.0 mph 17.0 mph 52% 0.00 in
11:19 36.0 °F 21.4 °F 30.15 in WNW 6.0 mph 17.0 mph 55% 0.00 in
11:24 36.7 °F 21.6 °F 30.14 in WNW 7.0 mph 17.0 mph 54% 0.00 in
11:29 36.6 °F 20.6 °F 30.14 in NW 6.0 mph 17.0 mph 52% 0.00 in
11:34 36.9 °F 20.0 °F 30.14 in WNW 7.0 mph 17.0 mph 50% 0.00 in
11:39 37.2 °F 21.6 °F 30.15 in WNW 3.0 mph 17.0 mph 53% 0.00 in
11:44 36.9 °F 21.8 °F 30.15 in NW 4.0 mph 15.0 mph 54% 0.00 in
11:49 37.1 °F 20.6 °F 30.15 in WNW 8.0 mph 17.0 mph 51% 0.00 in
11:54 37.0 °F 20.5 °F 30.15 in WNW 4.0 mph 17.0 mph 51% 0.00 in
11:59 37.4 °F 20.0 °F 30.14 in WNW 8.0 mph 15.0 mph 49% 0.00 in
12:04 37.8 °F 21.7 °F 30.14 in WNW 7.0 mph 13.0 mph 52% 0.00 in
12:09 38.0 °F 21.9 °F 30.14 in NW 3.0 mph 15.0 mph 52% 0.00 in
12:14 39.0 °F 21.0 °F 30.14 in NW 7.0 mph 16.0 mph 48% 0.00 in
12:19 39.3 °F 21.7 °F 30.14 in NNW 8.0 mph 16.0 mph 49% 0.00 in
12:24 39.0 °F 20.5 °F 30.14 in NW 5.0 mph 15.0 mph 47% 0.00 in
12:29 39.1 °F 21.1 °F 30.14 in NW 6.0 mph 15.0 mph 48% 0.00 in
12:34 39.3 °F 22.7 °F 30.14 in NW 7.0 mph 15.0 mph 51% 0.00 in
12:39 39.6 °F 22.5 °F 30.14 in NW 5.0 mph 18.0 mph 50% 0.00 in
12:44 39.7 °F 21.1 °F 30.14 in NW 6.0 mph 18.0 mph 47% 0.00 in
12:49 39.8 °F 21.7 °F 30.13 in WSW 3.0 mph 13.0 mph 48% 0.00 in
12:54 39.7 °F 19.6 °F 30.13 in WNW 5.0 mph 14.0 mph 44% 0.00 in
12:59 39.5 °F 18.8 °F 30.13 in WNW 10.0 mph 18.0 mph 43% 0.00 in
13:04 39.8 °F 20.2 °F 30.13 in West 5.0 mph 18.0 mph 45% 0.00 in
13:09 40.0 °F 18.8 °F 30.13 in NW 7.0 mph 16.0 mph 42% 0.00 in
13:14 40.1 °F 20.5 °F 30.13 in WNW 8.0 mph 14.0 mph 45% 0.00 in
13:19 40.2 °F 20.5 °F 30.13 in NW 5.0 mph 13.0 mph 45% 0.00 in
13:24 40.4 °F 21.3 °F 30.12 in WNW 7.0 mph 15.0 mph 46% 0.00 in
13:34 41.0 °F 20.8 °F 30.12 in NW 6.0 mph 16.0 mph 44% 0.00 in
13:39 41.6 °F 21.8 °F 30.12 in NW 4.0 mph 16.0 mph 45% 0.00 in
13:49 41.6 °F 19.1 °F 30.12 in WNW 6.0 mph 14.0 mph 40% 0.00 in
13:54 42.1 °F 20.7 °F 30.12 in NNW 4.0 mph 12.0 mph 42% 0.00 in
13:59 41.6 °F 17.9 °F 30.12 in NW 6.0 mph 12.0 mph 38% 0.00 in
14:04 41.6 °F 21.3 °F 30.12 in NW 4.0 mph 12.0 mph 44% 0.00 in
14:09 42.7 °F 21.2 °F 30.11 in WNW 6.0 mph 14.0 mph 42% 0.00 in
14:14 43.1 °F 21.0 °F 30.12 in NNW 4.0 mph 14.0 mph 41% 0.00 in
14:19 42.7 °F 17.6 °F 30.12 in West 5.0 mph 13.0 mph 36% 0.00 in
14:24 42.7 °F 19.5 °F 30.11 in NW 1.0 mph 12.0 mph 39% 0.00 in
14:29 43.3 °F 19.4 °F 30.12 in NW 7.0 mph 12.0 mph 38% 0.00 in
14:34 43.9 °F 19.9 °F 30.11 in North 5.0 mph 13.0 mph 38% 0.00 in
14:39 43.4 °F 18.9 °F 30.11 in NW 7.0 mph 14.0 mph 37% 0.00 in
14:44 43.1 °F 20.4 °F 30.11 in NNW 2.0 mph 14.0 mph 40% 0.00 in
14:49 43.4 °F 20.1 °F 30.11 in NW 6.0 mph 11.0 mph 39% 0.00 in
14:54 44.0 °F 18.8 °F 30.11 in NW 8.0 mph 16.0 mph 36% 0.00 in
14:59 43.4 °F 17.6 °F 30.11 in WNW 9.0 mph 16.0 mph 35% 0.00 in
15:04 43.0 °F 17.9 °F 30.10 in WNW 6.0 mph 14.0 mph 36% 0.00 in
15:09 43.3 °F 20.0 °F 30.10 in WNW 7.0 mph 14.0 mph 39% 0.00 in
15:14 44.0 °F 19.4 °F 30.10 in WNW 7.0 mph 13.0 mph 37% 0.00 in
15:19 44.1 °F 19.5 °F 30.10 in WNW 4.0 mph 13.0 mph 37% 0.00 in
15:24 44.2 °F 20.8 °F 30.10 in NW 5.0 mph 13.0 mph 39% 0.00 in
15:29 45.2 °F 21.1 °F 30.10 in NNW 3.0 mph 11.0 mph 38% 0.00 in
15:34 45.3 °F 19.9 °F 30.10 in NW 4.0 mph 10.0 mph 36% 0.00 in
15:39 45.2 °F 18.5 °F 30.09 in NW 3.0 mph 11.0 mph 34% 0.00 in
15:44 45.3 °F 19.2 °F 30.09 in WNW 4.0 mph 11.0 mph 35% 0.00 in
15:49 45.4 °F 20.6 °F 30.09 in North 4.0 mph 10.0 mph 37% 0.00 in
15:54 45.4 °F 20.0 °F 30.08 in NW 7.0 mph 15.0 mph 36% 0.00 in
15:59 45.0 °F 18.3 °F 30.08 in WNW 5.0 mph 15.0 mph 34% 0.00 in
16:04 44.6 °F 18.0 °F 30.08 in NW 6.0 mph 12.0 mph 34% 0.00 in
16:09 44.1 °F 18.2 °F 30.08 in WNW 7.0 mph 18.0 mph 35% 0.00 in
16:14 44.1 °F 20.1 °F 30.08 in NNW 2.0 mph 18.0 mph 38% 0.00 in
16:19 44.6 °F 18.0 °F 30.08 in NNW 4.0 mph 12.0 mph 34% 0.00 in
16:24 44.2 °F 16.9 °F 30.08 in WNW 5.0 mph 22.0 mph 33% 0.00 in
16:29 44.6 °F 18.6 °F 30.08 in NNW 5.0 mph 22.0 mph 35% 0.00 in
16:34 44.7 °F 18.7 °F 30.08 in NW 3.0 mph 17.0 mph 35% 0.00 in
16:39 45.3 °F 19.9 °F 30.08 in NNW 4.0 mph 17.0 mph 36% 0.00 in
16:44 45.6 °F 19.5 °F 30.08 in NNW 1.0 mph 11.0 mph 35% 0.00 in
16:49 45.6 °F 20.2 °F 30.08 in NW 3.0 mph 11.0 mph 36% 0.00 in
16:54 45.8 °F 20.4 °F 30.07 in North 2.0 mph 11.0 mph 36% 0.00 in
16:59 45.9 °F 19.8 °F 30.08 in NNW 3.0 mph 13.0 mph 35% 0.00 in
17:04 45.3 °F 19.9 °F 30.08 in NNW 1.0 mph 13.0 mph 36% 0.00 in
17:09 45.2 °F 19.2 °F 30.08 in NNW 2.0 mph 13.0 mph 35% 0.00 in
17:14 45.5 °F 19.4 °F 30.08 in NW 6.0 mph 13.0 mph 35% 0.00 in
17:19 45.6 °F 18.8 °F 30.08 in NW 5.0 mph 12.0 mph 34% 0.00 in
17:24 45.4 °F 18.7 °F 30.08 in NNW 6.0 mph 15.0 mph 34% 0.00 in
17:29 44.9 °F 18.2 °F 30.08 in NW 7.0 mph 15.0 mph 34% 0.00 in
17:34 45.0 °F 19.0 °F 30.08 in North 2.0 mph 11.0 mph 35% 0.00 in
17:39 44.6 °F 18.0 °F 30.08 in NNW 5.0 mph 16.0 mph 34% 0.00 in
17:49 44.4 °F 19.1 °F 30.08 in NNW 2.0 mph 14.0 mph 36% 0.00 in
17:54 44.4 °F 17.1 °F 30.08 in NW 5.0 mph 14.0 mph 33% 0.00 in
17:59 44.1 °F 17.5 °F 30.08 in NNW 5.0 mph 11.0 mph 34% 0.00 in
18:04 44.0 °F 17.4 °F 30.08 in NW 8.0 mph 13.0 mph 34% 0.00 in
18:09 43.8 °F 17.9 °F 30.08 in NW 5.0 mph 13.0 mph 35% 0.00 in
18:14 43.8 °F 17.2 °F 30.08 in NNW 5.0 mph 14.0 mph 34% 0.00 in
18:19 43.9 °F 17.3 °F 30.08 in NNW 3.0 mph 14.0 mph 34% 0.00 in
18:24 43.6 °F 17.1 °F 30.08 in NNW 4.0 mph 13.0 mph 34% 0.00 in
18:29 43.6 °F 17.7 °F 30.08 in NNW 3.0 mph 17.0 mph 35% 0.00 in
18:34 43.2 °F 16.7 °F 30.08 in NW 5.0 mph 17.0 mph 34% 0.00 in
18:39 42.8 °F 15.7 °F 30.08 in NNW 6.0 mph 14.0 mph 33% 0.00 in
18:44 42.7 °F 16.9 °F 30.08 in NNW 4.0 mph 14.0 mph 35% 0.00 in
18:49 42.6 °F 16.9 °F 30.08 in NW 4.0 mph 14.0 mph 35% 0.00 in
18:54 42.3 °F 15.9 °F 30.08 in NW 2.0 mph 10.0 mph 34% 0.00 in
18:59 42.1 °F 16.4 °F 30.08 in NW 4.0 mph 10.0 mph 35% 0.00 in
19:04 41.6 °F 15.3 °F 30.08 in NNW 3.0 mph 12.0 mph 34% 0.00 in
19:09 41.3 °F 15.7 °F 30.08 in NW 5.0 mph 12.0 mph 35% 0.00 in
19:14 41.1 °F 15.5 °F 30.08 in NW 1.0 mph 9.0 mph 35% 0.00 in
19:19 40.9 °F 16.6 °F 30.08 in NW 4.0 mph 11.0 mph 37% 0.00 in
19:24 40.5 °F 16.3 °F 30.08 in NW 5.0 mph 11.0 mph 37% 0.00 in
19:29 40.3 °F 17.3 °F 30.08 in NW 1.0 mph 8.0 mph 39% 0.00 in
19:34 39.8 °F 16.8 °F 30.08 in NW 2.0 mph 7.0 mph 39% 0.00 in
19:39 39.4 °F 17.1 °F 30.08 in NNW 1.0 mph 6.0 mph 40% 0.00 in
19:44 39.0 °F 16.7 °F 30.08 in NW 4.0 mph 8.0 mph 40% 0.00 in
19:49 38.7 °F 17.0 °F 30.08 in NW 1.0 mph 8.0 mph 41% 0.00 in
19:54 38.4 °F 16.7 °F 30.08 in NW 3.0 mph 9.0 mph 41% 0.00 in
19:59 38.1 °F 16.5 °F 30.08 in NW 3.0 mph 9.0 mph 41% 0.00 in
20:04 37.9 °F 16.3 °F 30.09 in NW 5.0 mph 10.0 mph 41% 0.00 in
20:09 37.8 °F 16.8 °F 30.09 in Calm   10.0 mph 42% 0.00 in
20:14 37.7 °F 16.7 °F 30.09 in WNW 2.0 mph 9.0 mph 42% 0.00 in
20:19 37.5 °F 15.9 °F 30.09 in NW 4.0 mph 8.0 mph 41% 0.00 in
20:24 37.3 °F 16.3 °F 30.09 in NNW 1.0 mph 7.0 mph 42% 0.00 in
20:29 37.1 °F 16.7 °F 30.10 in NW 2.0 mph 6.0 mph 43% 0.00 in
20:34 37.0 °F 16.0 °F 30.10 in Calm   7.0 mph 42% 0.00 in
20:39 36.8 °F 15.8 °F 30.10 in Calm   7.0 mph 42% 0.00 in
20:44 36.6 °F 15.7 °F 30.10 in NW 1.0 mph 6.0 mph 42% 0.00 in
20:49 36.6 °F 15.7 °F 30.10 in NW 1.0 mph 6.0 mph 42% 0.00 in
20:54 36.5 °F 15.6 °F 30.10 in Calm   5.0 mph 42% 0.00 in
20:59 36.1 °F 16.3 °F 30.10 in Calm   2.0 mph 44% 0.00 in
21:04 35.7 °F 15.9 °F 30.10 in Calm   2.0 mph 44% 0.00 in
21:09 35.7 °F 16.4 °F 30.10 in Calm   3.0 mph 45% 0.00 in
21:14 35.7 °F 16.4 °F 30.11 in Calm   3.0 mph 45% 0.00 in
21:19 35.8 °F 16.5 °F 30.11 in Calm   6.0 mph 45% 0.00 in
21:24 36.0 °F 16.2 °F 30.11 in WNW 1.0 mph 6.0 mph 44% 0.00 in
21:34 35.9 °F 16.6 °F 30.10 in West 1.0 mph 5.0 mph 45% 0.00 in
21:44 35.9 °F 16.6 °F 30.11 in West 3.0 mph 8.0 mph 45% 0.00 in
21:49 36.0 °F 16.2 °F 30.11 in WNW 1.0 mph 8.0 mph 44% 0.00 in
21:54 36.1 °F 15.8 °F 30.11 in WNW 3.0 mph 6.0 mph 43% 0.00 in
21:59 36.1 °F 15.8 °F 30.11 in WNW 1.0 mph 6.0 mph 43% 0.00 in
22:04 36.0 °F 16.2 °F 30.11 in Calm   5.0 mph 44% 0.00 in
22:09 36.1 °F 15.8 °F 30.11 in WNW 1.0 mph 7.0 mph 43% 0.00 in
22:14 36.3 °F 15.9 °F 30.11 in WNW 3.0 mph 7.0 mph 43% 0.00 in
22:19 36.2 °F 16.9 °F 30.11 in Calm   7.0 mph 45% 0.00 in
22:24 35.6 °F 16.9 °F 30.11 in WNW 1.0 mph 6.0 mph 46% 0.00 in
22:29 35.3 °F 17.1 °F 30.10 in WNW 2.0 mph 6.0 mph 47% 0.00 in
22:34 35.3 °F 17.1 °F 30.10 in WNW 1.0 mph 6.0 mph 47% 0.00 in
22:39 35.0 °F 17.3 °F 30.10 in Calm   4.0 mph 48% 0.00 in
22:49 34.7 °F 17.5 °F 30.10 in Calm   4.0 mph 49% 0.00 in
22:54 34.6 °F 17.4 °F 30.10 in Calm   4.0 mph 49% 0.00 in
22:59 34.6 °F 17.4 °F 30.10 in Calm   3.0 mph 49% 0.00 in
23:04 34.6 °F 17.4 °F 30.10 in Calm   3.0 mph 49% 0.00 in
23:09 34.5 °F 17.3 °F 30.10 in WNW 1.0 mph 4.0 mph 49% 0.00 in
23:14 34.4 °F 16.7 °F 30.10 in Calm   4.0 mph 48% 0.00 in
23:19 34.5 °F 17.3 °F 30.10 in Calm   4.0 mph 49% 0.00 in
23:24 34.5 °F 16.8 °F 30.10 in Calm   5.0 mph 48% 0.00 in
23:29 34.6 °F 16.9 °F 30.10 in Calm   5.0 mph 48% 0.00 in
23:34 34.4 °F 16.7 °F 30.10 in Calm   4.0 mph 48% 0.00 in
23:39 34.4 °F 16.7 °F 30.09 in Calm   4.0 mph 48% 0.00 in
23:44 34.4 °F 16.7 °F 30.09 in Calm   5.0 mph 48% 0.00 in
23:49 34.4 °F 16.7 °F 30.09 in West 1.0 mph 5.0 mph 48% 0.00 in
23:54 34.7 °F 16.0 °F 30.09 in WSW 1.0 mph 8.0 mph 46% 0.00 in
23:59 34.7 °F 16.5 °F 30.09 in Calm   8.0 mph 47% 0.00 in
Westford Weather
Compliments of Weather Underground

 
 
Current Radar Loop:

Copyright © WestfordWeather.net 2007-2014. All rights reserved.